Location: Chamberlain Observatory
(39.0028°N, 90.1630°W)
Time: 03:37:23
(UTC-05:00)

Daily predictions for brighter satellites

Satellite Brightness Start Highest point End
(mag) Time Altitude Azimuth Time Altitude Azimuth Time Altitude Azimuth
SL-16 R/B 4.4 03:01:21 21° N 03:01:21 21° N 03:03:19 10° N
Resurs 1-4 Rocket 4.4 03:02:43 10° NNE 03:04:14 19° NNE 03:04:14 19° NNE
Cosmos 2297 Rocket 4.2 03:18:11 22° NNE 03:18:11 22° NNE 03:20:11 10° NNE
CZ-2D R/B 4.1 03:27:56 10° N 03:29:39 21° N 03:29:39 21° N
Atlas Centaur 2 4.4 03:49:21 13° SE 03:49:21 13° SE 03:50:13 10° ESE
Cosmos 2026 Rocket 4.4 03:58:18 10° N 04:02:44 51° N 04:02:44 51° N
CZ-3 R/B 4.3 03:57:54 30° SSW 04:05:06 35° S 04:14:06 10° ESE
Cosmos 2227 4.4 04:08:59 68° ENE 04:08:59 68° ENE 04:14:03 10° NNE
CZ-4C R/B 3.6 04:10:28 27° NNW 04:10:28 27° NNW 04:14:27 10° NNE
Cosmos 2227 Rocket 4.2 04:17:35 16° NNW 04:17:35 16° NNW 04:19:30 10° N
Cosmos 1140 Rocket 3.9 04:15:56 56° ESE 04:16:08 56° ESE 04:21:16 10° NNE
Cosmos 2279 Rocket 3.8 04:16:28 86° W 04:16:29 86° W 04:22:44 10° N
Tiangong 1 4.4 04:30:02 11° ENE 04:30:02 11° ENE 04:30:14 10° ENE
Cosmos 2263 Rocket 3.3 04:26:49 23° SSE 04:29:51 41° ESE 04:35:10 10° NE
Cosmos 1954 Rocket 3.9 04:31:05 87° SSW 04:31:12 89° WNW 04:36:33 10° NNE
ARIANE 5 R/B 4.4 04:29:09 10° NNW 04:30:58 18° NNW 04:30:58 18° NNW
Cosmos 676 Rocket 4.0 04:33:52 68° NW 04:33:52 68° NW 04:38:53 10° NNE
ADEOS II 2.2 04:31:21 10° NNE 04:36:37 75° ESE 04:38:18 44° S
Cosmos 1975 Rocket 4.1 04:36:07 26° SSE 04:38:13 45° E 04:42:27 10° NNE
PSLV R/B 4.4 04:34:25 10° NNE 04:38:28 46° E 04:39:52 33° SSE
Okean 3 4.2 04:44:43 43° NNW 04:44:43 43° NNW 04:47:47 10° N
Resurs 1-4 Rocket 4.1 04:44:03 10° NNW 04:45:18 14° NW 04:45:18 14° NW
Cosmos 614 Rocket 3.8 04:47:27 61° SSW 04:48:22 83° WNW 04:53:30 10° NNE
DELTA 2 R/B (1) 3.5 04:48:40 59° W 04:49:48 90° N 04:55:24 10° E
Cosmos 1812 3.2 04:53:12 50° NNW 04:53:12 50° NNW 04:56:13 10° N
Cosmos 2297 Rocket 4.4 05:00:00 10° NW 05:00:00 10° NW 05:00:17 10° NW
CZ-4B R/B 3.7 04:56:17 10° NNE 05:01:30 58° ESE 05:06:44 10° S
Cosmos 1975 3.6 05:02:33 10° N 05:06:35 54° E 05:10:35 10° SSE
Cosmos 1378 Rocket 4.2 05:12:58 35° WNW 05:12:58 35° WNW 05:16:46 10° N
Cosmos 1500 3.0 05:11:41 10° NNW 05:15:25 72° W 05:19:09 10° S
Okean O Rocket 1.4 05:12:11 10° N 05:16:32 78° WNW 05:19:42 18° SSW
Okean 1 3.1 05:15:22 25° SSW 05:17:34 75° W 05:21:34 10° N
CZ-4B R/B 3.0 05:14:30 10° N 05:18:33 54° WNW 05:19:52 36° SW
SL-8 R/B 3.6 05:17:33 34° SW 05:19:38 88° SE 05:24:27 10° ENE
PSLV R/B 4.2 05:18:36 10° N 05:22:14 40° WNW 05:22:47 38° W
Meteor 1-18 Rocket 4.3 05:17:47 10° SSW 05:23:38 65° W 05:29:33 10° N
ATLAS 3B R/B 3.6 05:21:13 10° S 05:28:24 52° ESE 05:35:19 10° NE
Cosmos 2266 Rocket 4.1 05:23:42 10° NNW 05:29:55 54° W 05:36:06 10° SSW
GPS 2-05 Rocket1 3.3 05:32:34 33° SW 05:33:11 37° S 05:36:04 10° ESE
Molniya-1 3.3 05:33:57 40° N 05:33:57 40° N 05:35:17 10° NNE
Intercosmos 25 Rocket 3.4 05:28:34 10° S 05:33:43 81° W 05:37:15 10° N
CZ-4B DEB 4.2 05:29:08 10° N 05:34:33 65° WNW 05:39:56 10° SSW
Meteor 1-31 Rocket 2.8 05:30:43 10° NNE 05:34:37 79° ESE 05:38:28 10° S
CZ-4B R/B 4.0 05:30:57 10° NNE 05:34:48 74° ESE 05:38:49 10° S
Atlas Centaur 2 3.1 05:31:59 17° SW 05:35:03 28° S 05:39:02 10° ESE
Cosmos 1603 4.4 05:30:44 10° NW 05:35:30 29° WSW 05:40:17 10° SSW
BREEZE-M DEB (TANK) 4.3 05:22:58 10° WNW 05:36:44 40° WSW 05:40:57 10° SSE
Cosmos 1741 Rocket 4.2 05:33:57 17° SW 05:37:50 50° WNW 05:42:56 10° N
ISS -2.7 05:43:19 25° WSW 05:43:55 26° SW 05:46:43 10° SSE
Meteor 1-12 Rocket 4.4 05:38:39 10° NNW 05:44:37 64° W 05:50:32 10° S
USA 116 3.5 05:42:08 10° SSE 05:45:30 70° ENE 05:48:39 10° N
Cosmos 220 Rocket 4.5 05:43:03 18° SW 05:45:50 39° WNW 05:49:54 10° N
GEOS 3 Rocket 4.0 05:42:37 10° SE 05:47:44 67° NE 05:52:59 10° NNW
Abrixas rocket 3.1 05:46:30 21° WNW 05:48:09 35° NNW 05:51:10 10° NE
Meteor 2-11 Rocket 4.4 05:42:32 10° S 05:48:38 90° WNW 05:54:43 10° N
COSMO-SKYMED 1 4.1 05:45:38 10° SE 05:49:41 40° ENE 05:53:45 10° N
Landsat 4 3.8 05:46:35 10° S 05:50:19 54° W 05:54:05 10° NNW
Cosmos 332 Rocket 3.7 05:46:06 10° NNW 05:50:55 84° WSW 05:55:42 10° SSE
Cosmos 2084 4.2 05:51:56 11° WNW 05:55:02 26° WSW 05:58:23 10° S
USA 215 3.8 05:49:40 10° ESE 05:56:05 62° NE 06:02:31 10° NW
Cosmos 371 Rocket 3.3 05:52:14 10° NNW 05:57:09 87° WSW 06:01:59 10° SSE
Cosmos 1666 2.6 05:53:29 10° N 05:57:15 82° W 06:01:01 10° S
Cosmos 468 Rocket 4.1 05:53:49 10° NNW 05:59:11 88° ENE 06:04:29 10° SSE
Cosmos 1743 2.8 05:55:50 10° NNW 05:59:41 57° W 06:03:30 10° S
Cosmos 1943 3.8 05:56:31 10° NW 06:01:37 34° WSW 06:06:40 10° SSW
Tiangong 1 1.4 06:00:52 12° WNW 06:03:13 47° NNE 06:05:50 10° E
Meteor 1-13 Rocket 4.3 05:57:44 10° SSW 06:03:40 73° W 06:09:37 10° N
Cosmos 1844 Rocket 3.5 06:01:00 10° S 06:06:31 56° ESE 06:12:04 10° NNE
Cosmos 1437 Rocket 4.0 06:03:50 10° NW 06:06:51 21° W 06:09:52 10° SW
CZ-2C R/B 4.4 06:06:35 10° NE 06:10:41 31° E 06:14:49 10° SSE
Cosmos 2263 Rocket 3.2 06:09:03 10° WSW 06:13:53 28° WNW 06:18:45 10° N
Okean-O 2.6 06:09:58 10° N 06:14:25 77° WNW 06:18:50 10° SSW
ADEOS II 3.8 06:13:04 10° NNW 06:15:40 14° WNW 06:18:16 10° W
Cosmos 1544 Rocket 4.3 06:12:41 10° NNW 06:16:28 30° W 06:20:14 10° SSW
NOAA 6 4.1 06:11:31 10° NNE 06:16:44 83° WNW 06:21:55 10° SSW
CZ-2C R/B 4.4 06:17:03 10° SSW 06:21:17 35° W 06:25:38 10° NNW
Meteor 1-28 Rocket 3.4 06:19:30 10° S 06:23:04 47° W 06:26:43 10° NNW
Cosmos 1763 Rocket 3.7 06:17:59 10° NNW 06:23:18 82° ENE 06:28:37 10° SSE
Cosmos 1455 Rocket 3.9 06:20:56 10° NNW 06:24:36 27° W 06:28:15 10° SSW
